Мунстер

Германия     52°58′57″N   10°05′13″E
темп.,
°C
ветер,
м/с
пор.,
м/с
влажн.,
%
обл.,
%
осадки,
мм/ч
давл.,
гПа
погр.,
м
15 апреля, чт
чт1523:00+1с22856 0.0 102948
02:000св22875 0.0 103041
05:00−1св23845 0.0 103053
08:00+2с2471100 0.0 1031163
11:00+7ссв3444100 0.0 10311288
14:00+9ссв4537100 0.0 10302095
17:00+9св4640100 0.0 10291857
20:00+5св375559 0.0 1029299
16 апреля, пт
пт1623:00+2с277577 0.0 1030177
02:00+1с277995 0.0 1029172
05:00+2с278171 0.0 1029182
08:00+3ссв357968 0.0 1028197
11:00+8ссв354659 0.0 10281158
14:00+10ссв553686 0.0 10271490
17:00+9ссв5643100 0.0 10271298
20:00+7ссв385869 0.0 1027526
17 апреля, сб
сб1723:00+3с257883 0.0 1027132
02:00+2ссз277266 0.0 1026157
05:00+2с2778100 0.0 1025219
08:00+3ссв3794100 0.1 1025530
11:00+4с3788100 0.1 1025440
14:00+6ссв3586100 0.1 1025514
17:00+8ссв2582100 0.0 1024642
20:00+7ссв3688100 0.0 1024352
18 апреля, вс
вс1823:00+5ссв2593100 0.1 1024196
02:00+5с2594100 0.1 1024184
05:00+5с2596100 0.1 1023270
08:00+6св3693100 0.1 1023404
11:00+9св3474100 0.0 1023661
14:00+12ссв346298 0.1 10221241
17:00+11св3674100 0.8 1022842
20:00+9св3890100 1.6 1022515
19 апреля, пн
пн1923:00+8ссв2697100 1.6 1022287
02:00+7св2598100 2.1 1022305
05:00+7св2399100 0.0 1022170
08:00+8всв249477 0.0 1022246
11:00+10св247771 0.0 1022527
14:00+14св345899 0.2 10201567
17:00+12св358199 0.8 1020485
20:00+10св388984 2.0 1019262